Terminal Aerodrome Forecast
Issued by NWS

Home | Current Version | Previous Version | Graphics & Text | Print | Product List | Glossary On
Versions: 1 2 3 4 5 6 7 8 9 10 11 12 13 14 15 16 17 18 19 20 21 22 23 24 25 26 27 28 29 30 31 32 33 34 35 36 37 38 39 40 41 42 43 44 45 46
000
FTUS45 KBOU 021132
TAFAPA
TAF
KAPA 021132Z 0212/0312 26008KT P6SM SCT150 BKN220
     FM021400 32005KT P6SM FEW100 BKN180
     FM021800 06006KT P6SM FEW080 BKN150
     FM022100 14011KT P6SM VCSH SCT080 BKN120
     FM030200 16014KT P6SM SCT080 BKN120
     FM030500 19011KT P6SM FEW090 SCT140 BKN200=

USA.gov is the U.S. government's official web portal to all federal, state and local government web resources and services.